COSMOS 2251 DEB, 35038

Orbit data source: Space-Track

COSMOS 2251 DEB, 35038 is space debris in LEO originally from a launch on Wed, 16 Jun 1993 UTC launched from the Plesetsk Missile And Space Complex (PKMTR). The debris from Iridium 33, an American commercial communications satellite, has been tracked extensively since its accidental collision with the defunct Russian satellite Cosmos 2251 in 2009. This event, occurring at high speed in low Earth orbit (LEO), generated thousands of pieces of space debris, significantly increasing the risk of further collisions. The Iridium 33 debris cloud has impacted space traffic management and orbital debris mitigation strategies, making it a subject of ongoing study in space situational awareness.

Loading next visibility...
Identifier
35038, 1993-036AHB
Orbit
LEO
Country
Flag of CISCIS
Related business
Manufacturer
Unknown
Mission
Spacecraft
Bus & Motor
Unknown
Mass
Unknown
Launch date (UTC)
1993-06-16 (33 years ago)
Launch vehicle
Unknown
Launch site
Plesetsk Missile And Space Complex (PKMTR)
Object type
Payload
Rocket body
Debris
Shape & HBR
Unknown shape, 0.1 m
Radar Cross Section
Small (<0.1 m²)

Expand to show TLE details & history
Last TLE update: 3 days ago

TLE from 3 days ago
0 COSMOS 2251 DEB
1 35038U 93036AHB 26261.97101764  .00001626  00000-0  63718-3 0  9995
2 35038  74.1033 258.3166 0110225 173.7291 216.2759 14.26911351895648
Epoch: 2026-09-18T23:18Z
TLE epoch observation values (Epoch: 2026-09-18T23:18:15.924Z)
Latitude
28.09373°
Longitude
-80.43793°
Altitude
869.329 km
Speed
7.387 km/s
True Right ascension
17h 48m 03s
True Declination
27° 57' 12"
Sunlit
Object was in daylight at epoch
Visualization orbit readout
Latitude
Unknown
Longitude
Unknown
Altitude
Unknown
Speed
Unknown
Apparent Right ascension
Unknown
Apparent Declination
Unknown
Sunlit
N/A
Visualization observer readout
Local Sidereal Time
00:57:28
Azimuth
Unknown
Elevation
Unknown
Doppler factor
Unknown
Orbital elements
Apogee altitude
878.819 km
Perigee altitude
720.584 km
Semi-major axis
7,177.839 km
Eccentricity
0.01102
Inclination
74.1033°
RAAN
258.3166°
Arg. of periapsis
173.7291°
True anomaly
215.5368°
Mean anomaly
216.2759°
Eccentric anomaly
215.90553°
Mean motion
3.56905 °/min
Orbital period
100.87 mins
BSTAR
0.00063718

Documentation

Showing up to 5 results
|